{"data":{"norad_id":65392,"epoch":"2026-09-20T13:19:44.081184Z","epoch_age_seconds":110075,"freshness":"FRESH","line1":"1 65392U 25191P   26263.55537131  .00013611  00000+0  42311-3 0  9997","line2":"2 65392  97.2890 129.5342 0000615  90.6719 269.4594 15.33450488 59646","mean_motion":15.33450488,"eccentricity":6.15e-5,"inclination_deg":97.289,"raan_deg":129.5342,"arg_perigee_deg":90.6719,"mean_anomaly_deg":269.4594,"bstar":0.00042311,"rev_number":5964,"period_min":93.905868579958,"perigee_km":465.10596077343,"apogee_km":465.9477314265,"semimajor_km":6843.6638461,"source":"CELESTRAK","updated_at":"2026-09-21T09:00:35.599718Z"}}